KG7HVA-13 Weather Reports


Display with metric or nautical units.
time (UTC)temp
F
wind
direction
speed
MPH
gust
MPH
rain 1hr
in
rain 24hr
in
rain mn
in
humidity
%
barometer
mb
20260505022504 74 68 0.0 0.0 0.00 0.00 0.00 55 1012.8
20260505022003 74 68 0.0 0.0 0.00 0.00 0.00 54 1013.2
20260505021004 74 0 0.0 0.0 0.00 0.00 0.00 54 1013.2
20260505020504 74 0 0.0 0.0 0.00 0.00 0.00 54 1013.2
20260505020004 74 0 0.0 0.0 0.00 0.00 0.00 54 1013.2
20260505015504 74 0 0.0 0.0 0.00 0.00 0.00 54 1013.2
20260505015004 74 0 0.0 0.0 0.00 0.00 0.00 54 1013.2
20260505014504 74 0 0.0 0.0 0.00 0.00 0.00 54 1013.2
20260505014004 75 0 0.0 0.0 0.00 0.00 0.00 54 1013.2
20260505013504 74 0 0.0 0.0 0.00 0.00 0.00 54 1013.2
20260505012503 74 68 0.0 0.0 0.00 0.00 0.00 54 1013.2
20260505012004 74 68 0.0 1.0 0.00 0.00 0.00 53 1013.2
20260505011504 74 68 1.0 1.0 0.00 0.00 0.00 53 1013.2
20260505011004 74 122 0.0 1.0 0.00 0.00 0.00 53 1013.2
20260505010504 74 112 0.0 0.0 0.00 0.00 0.00 53 1013.2
20260505010004 75 90 0.0 1.0 0.00 0.00 0.00 53 1013.3
20260505005503 75 107 0.0 1.0 0.00 0.00 0.00 53 1013.5
20260505005004 75 112 0.0 1.0 0.00 0.00 0.00 53 1013.5
20260505004504 75 90 0.0 1.0 0.00 0.00 0.00 52 1013.5
20260505004004 75 180 0.0 0.0 0.00 0.00 0.00 52 1013.5
20260505003503 75 90 0.0 0.0 0.00 0.00 0.00 52 1013.5
20260505003004 75 90 0.0 0.0 0.00 0.00 0.00 52 1013.5
20260505002504 75 164 0.0 0.0 0.00 0.00 0.00 51 1013.5
20260505002004 75 180 0.0 0.0 0.00 0.00 0.00 52 1013.5
20260505001004 75 81 0.0 0.0 0.00 0.00 0.00 51 1013.5
20260505000503 75 68 0.0 0.0 0.00 0.00 0.00 51 1013.5
20260505000004 75 45 0.0 0.0 0.00 0.00 0.00 51 1013.8
20260504235503 74 90 0.0 0.0 0.00 0.00 0.00 51 1013.8
20260504235003 74 90 0.0 0.0 0.00 0.00 0.00 51 1013.8
20260504234004 74 74 0.0 0.0 0.00 0.00 0.00 51 1013.8
20260504233504 74 158 0.0 0.0 0.00 0.00 0.00 52 1013.8
20260504233003 74 158 0.0 0.0 0.00 0.00 0.00 51 1013.8
20260504232503 74 90 0.0 0.0 0.00 0.00 0.00 51 1013.8
20260504232004 74 90 0.0 0.0 0.00 0.00 0.00 51 1013.8
20260504231504 74 68 0.0 0.0 0.00 0.00 0.00 51 1013.8
20260504230505 74 22 0.0 0.0 0.00 0.00 0.00 51 1013.8
20260504230004 74 135 0.0 0.0 0.00 0.00 0.00 51 1014.2
20260504225504 74 90 1.0 2.0 0.00 0.00 0.00 51 1014.2
20260504225004 74 90 0.0 1.0 0.00 0.00 0.00 51 1014.2
20260504224503 74 83 0.0 0.0 0.00 0.00 0.00 51 1014.5
20260504224003 74 112 0.0 1.0 0.00 0.00 0.00 51 1014.5
20260504223504 74 68 1.0 1.0 0.00 0.00 0.00 50 1014.5
20260504223004 74 135 0.0 0.0 0.00 0.00 0.00 51 1014.5
20260504222504 74 114 1.0 1.0 0.00 0.00 0.00 50 1014.5
20260504222003 73 68 0.0 0.0 0.00 0.00 0.00 50 1014.5
20260504221504 74 90 0.0 1.0 0.00 0.00 0.00 50 1014.9
20260504221004 74 72 2.0 2.0 0.00 0.00 0.00 50 1014.9
20260504220504 74 112 0.0 0.0 0.00 0.00 0.00 50 1014.9
20260504220004 74 90 2.0 2.0 0.00 0.00 0.00 50 1015.2
20260504215004 74 292 1.0 1.0 0.00 0.00 0.00 50 1015.2
20260504214504 74 336 0.0 0.0 0.00 0.00 0.00 50 1015.2
20260504213504 74 202 0.0 0.0 0.00 0.00 0.00 50 1015.2
20260504213004 74 172 0.0 0.0 0.00 0.00 0.00 50 1015.2
20260504212503 74 270 0.0 0.0 0.00 0.00 0.00 50 1015.2
20260504212003 74 248 0.0 0.0 0.00 0.00 0.00 49 1015.5
20260504211503 74 251 0.0 0.0 0.00 0.00 0.00 49 1015.5
20260504210504 74 90 0.0 0.0 0.00 0.00 0.00 49 1015.5
20260504210004 74 102 0.0 1.0 0.00 0.00 0.00 49 1015.7
20260504205504 74 45 1.0 1.0 0.00 0.00 0.00 49 1015.9
20260504205004 74 68 0.0 3.0 0.00 0.00 0.00 49 1015.9
20260504204504 74 80 0.0 3.0 0.00 0.00 0.00 49 1015.9
20260504204004 74 89 0.0 0.0 0.00 0.00 0.00 49 1016.1
20260504203504 74 68 0.0 2.0 0.00 0.00 0.00 49 1016.0
20260504203004 74 68 0.0 2.0 0.00 0.00 0.00 49 1016.2
20260504202504 73 45 0.0 1.0 0.00 0.00 0.00 50 1016.2
20260504201504 73 91 1.0 1.0 0.00 0.00 0.00 49 1016.2
20260504201004 73 91 1.0 1.0 0.00 0.00 0.00 49 1016.2
20260504200504 73 90 1.0 1.0 0.00 0.00 0.00 49 1016.5
20260504200004 73 90 1.0 1.0 0.00 0.00 0.00 49 1016.5
20260504195503 73 90 1.0 1.0 0.00 0.00 0.00 49 1016.5
20260504195004 74 135 0.0 0.0 0.00 0.00 0.00 48 1016.5
20260504194504 74 68 1.0 2.0 0.00 0.00 0.00 48 1016.5
20260504194004 76 68 1.0 1.0 0.00 0.00 0.00 47 1016.5
20260504193504 76 68 1.0 1.0 0.00 0.00 0.00 47 1016.5
20260504193004 76 68 1.0 1.0 0.00 0.00 0.00 47 1016.5
20260504192504 76 248 0.0 0.0 0.00 0.00 0.00 49 1016.5
20260504192003 75 248 0.0 0.0 0.00 0.00 0.00 49 1016.5
20260504191004 75 112 0.0 0.0 0.00 0.00 0.00 49 1016.8
20260504190504 74 135 0.0 0.0 0.00 0.00 0.00 49 1016.9
20260504185003 73 45 1.0 1.0 0.00 0.00 0.00 50 1017.0
20260504184504 73 177 0.0 0.0 0.00 0.00 0.00 50 1016.9
20260504184004 73 135 0.0 0.0 0.00 0.00 0.00 49 1016.9
20260504183504 73 90 0.0 1.0 0.00 0.00 0.00 48 1016.9
20260504183004 74 86 1.0 1.0 0.00 0.00 0.00 48 1016.9
20260504182505 74 158 0.0 0.0 0.00 0.00 0.00 49 1016.9
20260504182004 75 135 0.0 3.0 0.00 0.00 0.00 48 1016.9
20260504181504 75 127 0.0 3.0 0.00 0.00 0.00 48 1016.9
20260504181004 75 202 0.0 0.0 0.00 0.00 0.00 49 1016.9
20260504175504 74 112 0.0 1.0 0.00 0.00 0.00 48 1017.1
20260504175003 75 68 1.0 1.0 0.00 0.00 0.00 48 1016.9
20260504174504 75 168 0.0 1.0 0.00 0.00 0.00 49 1016.9
20260504174004 75 180 0.0 0.0 0.00 0.00 0.00 49 1017.1
20260504172503 75 158 0.0 0.0 0.00 0.00 0.00 49 1016.9
20260504172004 75 202 0.0 0.0 0.00 0.00 0.00 49 1016.9
20260504171504 75 202 0.0 0.0 0.00 0.00 0.00 50 1016.9
20260504171003 74 202 0.0 0.0 0.00 0.00 0.00 51 1016.8
20260504151004 65 180 0.0 0.0 0.00 0.00 0.00 60 1016.2
20260504150504 65 180 0.0 0.0 0.00 0.00 0.00 61 1016.2
20260504140504 60 90 0.0 0.0 0.00 0.00 0.00 62 1015.5
20260504130504 61 90 0.0 0.0 0.00 0.00 0.00 59 1014.5
20260504110504 64 90 0.0 0.0 0.00 0.00 0.00 55 1012.8
20260504100504 67 135 0.0 0.0 0.00 0.00 0.00 50 1012.1
20260504082004 70 292 0.0 0.0 0.00 0.00 0.00 44 1011.5
20260504081003 71 292 0.0 0.0 0.00 0.00 0.00 43 1011.5
20260504080504 72 292 0.0 0.0 0.00 0.00 0.00 43 1011.5
20260504050504 76 270 0.0 0.0 0.00 0.00 0.00 39 1011.1
20260504050004 76 270 0.0 0.0 0.00 0.00 0.00 39 1010.8
20260504045004 77 270 0.0 0.0 0.00 0.00 0.00 39 1010.8
20260504044504 77 270 0.0 0.0 0.00 0.00 0.00 39 1010.8
20260504044004 77 270 0.0 0.0 0.00 0.00 0.00 38 1010.8
20260504043004 78 292 0.0 0.0 0.00 0.00 0.00 38 1010.8
20260504042004 78 292 0.0 2.0 0.00 0.00 0.00 38 1010.8
20260504041504 78 270 0.0 0.0 0.00 0.00 0.00 38 1010.7
20260504041004 78 270 0.0 0.0 0.00 0.00 0.00 38 1010.4
20260504040505 79 270 0.0 0.0 0.00 0.00 0.00 38 1010.4
20260504040004 79 270 0.0 0.0 0.00 0.00 0.00 38 1010.4
20260504035504 79 270 0.0 0.0 0.00 0.00 0.00 38 1010.4
20260504035006 79 270 0.0 0.0 0.00 0.00 0.00 38 1010.4
20260504034504 79 270 0.0 0.0 0.00 0.00 0.00 39 1010.4
20260504033504 80 270 0.0 0.0 0.00 0.00 0.00 39 1010.3
20260504033004 80 292 0.0 0.0 0.00 0.00 0.00 39 1010.1
20260504032504 80 292 0.0 0.0 0.00 0.00 0.00 39 1010.1
20260504032004 81 292 0.0 0.0 0.00 0.00 0.00 38 1010.1
20260504031504 81 292 0.0 0.0 0.00 0.00 0.00 38 1010.1
20260504031004 81 292 0.0 0.0 0.00 0.00 0.00 38 1010.1
20260504030504 82 292 0.0 0.0 0.00 0.00 0.00 38 1010.1
20260504030004 82 292 0.0 0.0 0.00 0.00 0.00 38 1009.9
20260504025503 82 292 0.0 0.0 0.00 0.00 0.00 38 1010.1
20260504025003 82 292 0.0 0.0 0.00 0.00 0.00 38 1010.1
20260504024004 83 292 0.0 0.0 0.00 0.00 0.00 37 1009.8
20260504023505 83 277 0.0 0.0 0.00 0.00 0.00 37 1009.8